Location: Vihti�l�
(61.3833°N, 23.0667°E)
Time: 03:06:32
(UTC+00:00)

SME Rocket - Pass Details

Date: 29 November 2020
Orbit: 550 x 2651 km, 99.9° (Epoch: 19 January)

Event Time Altitude Azimuth Distance (km) Brightness Sun altitude
Rises 05:46:58 0° 160° (SSE) 2,751 7.3 -8.7°
Reaches altitude 10° 05:48:52 10° 161° (SSE) 1,917 6.4 -8.5°
Maximum altitude 05:52:51 82° 249° (WSW) 699 3.3 -8.1°
Drops below altitude 10° 05:58:12 10° 338° (NNW) 2,569 5.7 -7.5°
Enters shadow 06:00:48 - 339° (NNW) 3,669 6.5 -7.2°
